Weather History for Durango, CO

Change the Weather History Date:

Friday, March 8, 2013

  Actual Average Record
Temperature  
Mean Temperature 37 °F 35 °F  
Max Temperature 44 °F 50 °F 73 °F (1972)
Min Temperature 29 °F 21 °F 13 °F (1971)
Degree Days  
Heating Degree Days 28 30  
Month to date heating degree days 213 247  
Since 1 July heating degree days 5559 5422  
Cooling Degree Days 0 0  
Month to date cooling degree days 0 0  
Year to date cooling degree days 0 0  
Moisture  
Dew Point 31 °F    
Average Humidity 80    
Maximum Humidity 100    
Minimum Humidity 59    
Precipitation  
Precipitation 0.40 in 0.04 in 0.62 in (1975)
Month to date precipitation 0.40 0.40  
Year to date precipitation 2.61 2.68  
Sea Level Pressure  
Sea Level Pressure 29.84 in    
Wind  
Wind Speed 6 mph (East)    
Max Wind Speed 22 mph    
Max Gust Speed 30 mph    
Visibility 6 miles    
Events Fog , Rain , Snow    
T = Trace of Precipitation, MM = Missing Value Source: NWS Daily Summary

Daily Weather History Graph

Daily Weather History Graph

Search for Another Location

Airport:

Trip Planner

Search our weather history database for the weather conditions in past years. The results will help you decide how hot, cold, wet, or windy it might be!

Date:

Astronomy

Mar. 08, 2013 Rise Set
Actual Time 6:31 AM MST 6:12 PM MST
Civil Twilight 6:05 AM MST 6:38 PM MST
Nautical Twilight 5:35 AM MST 7:08 PM MST
Astronomical Twilight 5:05 AM MST 7:38 PM MST
Moon 4:14 AM MST (3/8) 3:13 PM MST (3/8)
Length of Visible Light 12h 32m
Length of Day
11h 40m
Waning Crescent, 11% of the Moon is Illuminated
Mar 8
Waning Crescent
Mar 11
New
Mar 19
First Quarter
Mar 27
Full
Apr 2
Last Quarter

Hourly Weather History & Observations

Time (MST) Temp. Windchill Dew Point Humidity Pressure Visibility Wind Dir Wind Speed Gust Speed Precip Events Conditions
12:53 AM 30.9 °F 27.5 °F 24.1 °F 76% 29.94 in 10.0 mi ENE 3.5 mph - N/A   Clear
1:53 AM 32.0 °F 26.4 °F 21.9 °F 66% 29.94 in 10.0 mi North 5.8 mph - N/A   Clear
2:53 AM 30.0 °F 25.2 °F 25.0 °F 82% 29.92 in 10.0 mi East 4.6 mph - N/A   Mostly Cloudy
3:53 AM 30.0 °F 25.2 °F 24.1 °F 79% 29.91 in 10.0 mi East 4.6 mph - N/A   Clear
4:53 AM 30.9 °F 27.5 °F 23.0 °F 72% 29.92 in 10.0 mi NE 3.5 mph - N/A   Mostly Cloudy
5:53 AM 30.9 °F - 25.0 °F 79% 29.92 in 10.0 mi Calm Calm - N/A   Overcast
6:53 AM 30.9 °F 26.2 °F 24.1 °F 76% 29.94 in 10.0 mi NNE 4.6 mph - N/A   Overcast
7:53 AM 33.1 °F 27.7 °F 24.1 °F 70% 29.93 in 10.0 mi ENE 5.8 mph - N/A   Clear
8:53 AM 36.0 °F - 23.0 °F 59% 29.91 in 10.0 mi Calm Calm - N/A   Overcast
9:53 AM 37.0 °F 31.0 °F 27.0 °F 67% 29.97 in 9.0 mi SW 8.1 mph - 0.00 in   Overcast
10:53 AM 36.0 °F 29.0 °F 30.9 °F 82% 29.97 in 10.0 mi North 9.2 mph - 0.00 in   Overcast
11:53 AM 37.9 °F 32.1 °F 32.0 °F 79% 29.95 in 10.0 mi East 8.1 mph - 0.00 in Rain Light Rain
12:05 PM 37.4 °F 32.1 °F 32.0 °F 81% 29.93 in 8.0 mi East 6.9 mph - 0.00 in Rain Light Rain
12:51 PM 41.0 °F 34.3 °F 33.8 °F 76% 29.88 in 10.0 mi ENE 11.5 mph - 0.00 in   Scattered Clouds
12:53 PM 41.0 °F 34.7 °F 33.1 °F 73% 29.89 in 10.0 mi East 10.4 mph - 0.00 in   Scattered Clouds
1:08 PM 42.8 °F 38.0 °F 33.8 °F 70% 29.87 in 10.0 mi East 8.1 mph - N/A   Mostly Cloudy
1:41 PM 42.8 °F 36.6 °F 32.0 °F 66% 29.83 in 10.0 mi East 11.5 mph - N/A   Overcast
1:53 PM 44.1 °F 38.6 °F 32.0 °F 63% 29.81 in 10.0 mi East 10.4 mph - 0.00 in Rain Light Rain
2:12 PM 41.0 °F 35.2 °F 30.2 °F 65% 29.83 in 10.0 mi East 9.2 mph 16.1 mph 0.00 in Rain Light Rain
2:53 PM 39.0 °F 35.7 °F 35.1 °F 86% 29.83 in 10.0 mi SE 4.6 mph - 0.03 in Rain Light Rain
3:03 PM 39.2 °F 35.9 °F 35.6 °F 87% 29.81 in 10.0 mi SSE 4.6 mph - 0.00 in   Mostly Cloudy
3:43 PM 37.4 °F 30.3 °F 35.6 °F 93% 29.80 in 6.0 mi SSE 10.4 mph 20.7 mph 0.01 in Rain Light Rain
3:53 PM 37.0 °F 28.9 °F 35.1 °F 93% 29.82 in 3.0 mi ESE 12.7 mph 20.7 mph 0.04 in Rain Rain
4:19 PM 37.4 °F 32.8 °F 37.4 °F 100% 29.78 in 10.0 mi ESE 5.8 mph - 0.00 in Rain Light Rain
4:29 PM 35.6 °F 24.2 °F 35.6 °F 100% 29.80 in 2.5 mi WSW 21.9 mph 29.9 mph 0.02 in Rain Rain
4:33 PM 33.8 °F 22.8 °F 33.8 °F 100% 29.81 in 1.2 mi WSW 18.4 mph 29.9 mph 0.02 in Snow Light Snow
4:40 PM 33.8 °F 22.8 °F 33.8 °F 100% 29.81 in 0.8 mi WSW 18.4 mph 26.5 mph 0.03 in Snow Light Snow
4:51 PM 32.0 °F 19.8 °F 32.0 °F 100% 29.82 in 0.5 mi West 20.7 mph 28.8 mph 0.04 in Fog , Snow Snow
4:53 PM 32.0 °F 19.8 °F 32.0 °F 100% 29.86 in 0.5 mi West 20.7 mph 28.8 mph 0.04 in Fog , Snow Snow
5:07 PM 32.0 °F 22.1 °F 32.0 °F 100% 29.82 in 0.8 mi West 13.8 mph - 0.00 in Snow Light Snow
5:14 PM 32.0 °F 23.6 °F 32.0 °F 100% 29.82 in 1.0 mi WSW 10.4 mph - 0.00 in Snow Light Snow
5:27 PM 32.0 °F 24.2 °F 32.0 °F 100% 29.80 in 0.5 mi North 9.2 mph - 0.02 in Fog , Snow Snow
5:34 PM 32.0 °F 22.5 °F 32.0 °F 100% 29.78 in 1.5 mi North 12.7 mph - 0.02 in Snow Light Snow
5:37 PM 32.0 °F 23.6 °F 32.0 °F 100% 29.78 in 3.0 mi North 10.4 mph - 0.02 in Snow Light Snow
5:44 PM 33.8 °F 27.7 °F 33.8 °F 100% 29.80 in 9.0 mi North 6.9 mph - 0.02 in   Overcast
5:53 PM 32.0 °F 26.4 °F 32.0 °F 100% 29.84 in 10.0 mi North 5.8 mph - 0.02 in   Mostly Cloudy
6:53 PM 32.0 °F 27.5 °F 32.0 °F 100% 29.83 in 10.0 mi ESE 4.6 mph - N/A   Partly Cloudy
7:49 PM 33.8 °F 30.8 °F 32.0 °F 93% 29.79 in 10.0 mi SE 3.5 mph - N/A   Overcast
7:53 PM 33.1 °F 30.0 °F 32.0 °F 96% 29.83 in 10.0 mi ESE 3.5 mph - N/A   Overcast
8:22 PM 32.0 °F 23.6 °F 30.2 °F 93% 29.79 in 1.8 mi ESE 10.4 mph - 0.00 in Snow Light Snow
8:30 PM 32.0 °F 25.6 °F 32.0 °F 100% 29.78 in 1.2 mi ESE 6.9 mph - 0.01 in Snow Light Snow
8:49 PM 32.0 °F 26.4 °F 32.0 °F 100% 29.78 in 1.0 mi ESE 5.8 mph - 0.02 in Snow Light Snow
8:53 PM 32.0 °F 26.4 °F 32.0 °F 100% 29.80 in 1.2 mi ESE 5.8 mph - 0.03 in Snow Light Snow
9:09 PM 32.0 °F 25.6 °F 32.0 °F 100% 29.78 in 0.8 mi ESE 6.9 mph - 0.02 in Snow Light Snow
9:48 PM 32.0 °F 27.5 °F 30.2 °F 93% 29.78 in 0.5 mi West 4.6 mph - 0.12 in Fog , Snow Snow
9:53 PM 32.0 °F 27.5 °F 32.0 °F 100% 29.79 in 0.5 mi NW 4.6 mph - 0.15 in Fog , Snow Snow
10:03 PM 32.0 °F - 32.0 °F 100% 29.77 in 0.5 mi Calm Calm - 0.03 in Fog , Snow Snow
10:43 PM 32.0 °F 27.5 °F 30.2 °F 93% 29.77 in 2.0 mi NE 4.6 mph - 0.09 in Snow Light Snow
10:50 PM 30.2 °F 26.7 °F 30.2 °F 100% 29.77 in 3.0 mi ENE 3.5 mph - 0.09 in Snow Light Snow
10:51 PM 30.9 °F - 30.9 °F 100% 29.79 in 3.0 mi Calm Calm - 0.09 in Snow Light Snow
11:34 PM 32.0 °F 28.7 °F 30.2 °F 93% 29.77 in 7.0 mi South 3.5 mph - 0.00 in Snow Light Snow
11:40 PM 30.2 °F 26.7 °F 30.2 °F 100% 29.77 in 2.5 mi SSE 3.5 mph - 0.00 in Snow Light Snow
11:44 PM 30.2 °F - 30.2 °F 100% 29.77 in 1.2 mi Calm Calm - 0.00 in   Overcast
11:50 PM 32.0 °F 28.7 °F 30.2 °F 93% 29.77 in 1.5 mi East 3.5 mph - 0.00 in   Overcast
11:53 PM 32.0 °F 28.7 °F 30.9 °F 96% 29.78 in 3.0 mi East 3.5 mph - 0.00 in   Overcast